Time,TemperatureF,DewpointF,PressureIn,WindDirection,WindDirectionDegrees,WindSpeedMPH,WindSpeedGustMPH,Humidity,HourlyPrecipIn,Conditions,Clouds,dailyrainin,SoftwareType,DateUTC
2013-10-11 00:01:00,47.5,40.0,29.35,ENE,68,0.0,0.0,75,0.00,,,0.00,WSDL version 420,2013-10-11 04:01:00,
2013-10-11 00:03:00,47.5,40.0,29.35,ENE,68,0.0,0.0,75,0.00,,,0.00,WSDL version 420,2013-10-11 04:03:00,
2013-10-11 00:08:00,47.6,40.0,29.35,ENE,68,0.0,0.0,75,0.00,,,0.00,WSDL version 420,2013-10-11 04:08:00,
2013-10-11 00:13:00,47.8,40.7,29.32,ENE,68,0.0,0.0,76,0.00,,,0.00,WSDL version 420,2013-10-11 04:13:00,
2013-10-11 00:15:00,47.8,40.7,29.32,ENE,68,0.0,0.0,76,0.00,,,0.00,WSDL version 420,2013-10-11 04:15:00,
2013-10-11 00:17:00,47.8,40.5,29.32,ENE,68,0.0,0.0,75,0.00,,,0.00,WSDL version 420,2013-10-11 04:17:00,
2013-10-11 00:23:00,48.0,40.8,29.32,ENE,68,0.0,0.0,76,0.00,,,0.00,WSDL version 420,2013-10-11 04:23:00,
2013-10-11 00:29:00,48.0,40.7,29.32,ENE,68,0.0,0.0,76,0.00,,,0.00,WSDL version 420,2013-10-11 04:29:00,
2013-10-11 00:37:00,48.2,41.0,29.32,ENE,68,0.0,0.0,76,-99.99,,,-99.99,WSDL version 420,2013-10-11 04:37:00,
2013-10-11 00:50:00,48.6,41.3,29.35,NNE,23,0.0,0.0,76,0.00,,,0.00,WSDL version 420,2013-10-11 04:50:00,
2013-10-11 00:56:00,48.6,41.5,29.32,ENE,58,0.0,0.0,77,0.00,,,0.00,WSDL version 420,2013-10-11 04:56:00,
2013-10-11 01:06:00,48.7,41.9,29.32,ENE,68,0.0,0.0,77,0.00,,,0.00,WSDL version 420,2013-10-11 05:06:00,
2013-10-11 01:17:00,49.1,42.5,29.32,ENE,68,0.0,0.0,78,0.00,,,0.00,WSDL version 420,2013-10-11 05:17:00,
2013-10-11 01:25:00,49.3,42.7,29.32,ENE,68,0.0,0.0,78,0.00,,,0.00,WSDL version 420,2013-10-11 05:25:00,
2013-10-11 01:31:00,49.4,42.8,29.32,ENE,68,0.0,0.0,78,0.00,,,0.00,WSDL version 420,2013-10-11 05:31:00,
2013-10-11 01:45:00,49.6,43.1,29.32,ENE,68,0.0,0.0,78,0.00,,,0.00,WSDL version 420,2013-10-11 05:45:00,
2013-10-11 01:56:00,49.8,43.2,-100.00,East,90,0.0,0.0,78,0.00,,,0.00,WSDL version 420,2013-10-11 05:56:00,
2013-10-11 02:02:00,49.9,43.6,29.29,East,90,0.0,0.0,79,0.00,,,0.00,WSDL version 420,2013-10-11 06:02:00,
2013-10-11 02:08:00,50.0,43.8,29.32,ENE,68,0.0,0.0,79,0.00,,,0.00,WSDL version 420,2013-10-11 06:08:00,
2013-10-11 02:14:00,50.2,43.9,29.32,ENE,68,0.0,0.0,79,-99.99,,,-99.99,WSDL version 420,2013-10-11 06:14:00,
2013-10-11 02:20:00,50.2,44.0,29.32,East,90,0.0,0.0,79,0.00,,,0.00,WSDL version 420,2013-10-11 06:20:00,
2013-10-11 02:26:00,50.4,44.1,29.32,ENE,68,0.0,0.0,79,0.00,,,0.00,WSDL version 420,2013-10-11 06:26:00,
2013-10-11 02:32:00,50.5,44.3,29.32,ENE,68,0.0,0.0,79,0.00,,,0.00,WSDL version 420,2013-10-11 06:32:00,
2013-10-11 02:38:00,50.5,44.1,29.32,ENE,68,0.0,0.0,78,0.00,,,0.00,WSDL version 420,2013-10-11 06:38:00,
2013-10-11 02:44:00,50.7,44.4,29.32,ENE,68,0.0,0.0,79,0.00,,,0.00,WSDL version 420,2013-10-11 06:44:00,
2013-10-11 02:50:00,50.7,44.5,29.32,ENE,68,0.0,0.0,79,0.00,,,0.00,WSDL version 420,2013-10-11 06:50:00,
2013-10-11 02:55:00,50.7,44.5,29.32,ENE,68,0.0,0.0,79,0.00,,,0.00,WSDL version 420,2013-10-11 06:55:00,
2013-10-11 03:01:00,50.9,44.6,29.32,ENE,68,0.0,0.0,79,0.00,,,0.00,WSDL version 420,2013-10-11 07:01:00,
2013-10-11 03:07:00,51.0,44.7,29.32,ENE,68,0.0,0.0,79,0.00,,,0.00,WSDL version 420,2013-10-11 07:07:00,
2013-10-11 03:13:00,51.1,44.8,29.32,ENE,68,0.0,0.0,79,0.00,,,0.00,WSDL version 420,2013-10-11 07:13:00,
2013-10-11 03:19:00,51.1,45.2,29.32,ENE,68,0.0,0.0,80,0.00,,,0.00,WSDL version 420,2013-10-11 07:19:00,
2013-10-11 03:25:00,51.3,45.0,29.32,East,90,0.0,0.0,79,0.00,,,0.00,WSDL version 420,2013-10-11 07:25:00,
2013-10-11 03:31:00,51.4,45.5,29.32,East,90,0.0,0.0,80,0.00,,,0.00,WSDL version 420,2013-10-11 07:31:00,
2013-10-11 03:37:00,51.4,45.5,29.32,NE,45,0.0,0.0,80,0.00,,,0.00,WSDL version 420,2013-10-11 07:37:00,
2013-10-11 03:43:00,51.5,45.6,29.35,ENE,68,0.0,0.0,80,0.00,,,0.00,WSDL version 420,2013-10-11 07:43:00,
2013-10-11 03:49:00,51.6,45.7,29.35,ENE,68,0.0,0.0,80,0.00,,,0.00,WSDL version 420,2013-10-11 07:49:00,
2013-10-11 03:55:00,51.6,45.3,29.32,ENE,68,0.0,0.0,79,0.00,,,0.00,WSDL version 420,2013-10-11 07:55:00,
2013-10-11 04:01:00,51.8,45.3,29.32,ENE,68,0.0,0.0,78,0.00,,,0.00,WSDL version 420,2013-10-11 08:01:00,
2013-10-11 04:08:00,52.0,45.3,29.32,ENE,68,0.0,0.0,78,0.00,,,0.00,WSDL version 420,2013-10-11 08:08:00,
2013-10-11 04:13:00,52.0,45.3,-100.00,ENE,68,0.0,0.0,78,-99.99,,,-99.99,WSDL version 420,2013-10-11 08:13:00,
2013-10-11 04:19:00,52.1,45.5,29.32,ENE,68,0.0,0.0,78,-99.99,,,-99.99,WSDL version 420,2013-10-11 08:19:00,
2013-10-11 04:25:00,52.2,45.5,29.29,ENE,68,0.0,0.0,78,-99.99,,,-99.99,WSDL version 420,2013-10-11 08:25:00,
2013-10-11 04:30:00,52.2,45.5,29.29,ENE,68,0.0,0.0,78,0.00,,,0.00,WSDL version 420,2013-10-11 08:30:00,
2013-10-11 04:36:00,52.2,45.5,-100.00,ENE,68,0.0,0.0,78,0.00,,,0.00,WSDL version 420,2013-10-11 08:36:00,
2013-10-11 04:42:00,52.2,45.5,29.32,ENE,68,0.0,0.0,78,0.00,,,0.00,WSDL version 420,2013-10-11 08:42:00,
2013-10-11 04:48:00,52.2,45.5,29.32,ENE,68,0.0,0.0,78,0.00,,,0.00,WSDL version 420,2013-10-11 08:48:00,
2013-10-11 04:54:00,52.2,45.5,-100.00,NE,45,0.0,0.0,78,-99.99,,,-99.99,WSDL version 420,2013-10-11 08:54:00,
2013-10-11 04:59:00,52.2,45.5,29.32,ENE,68,0.0,0.0,78,0.00,,,0.00,WSDL version 420,2013-10-11 08:59:00,
2013-10-11 05:05:00,52.2,45.5,29.32,ENE,68,0.0,0.0,78,0.00,,,0.00,WSDL version 420,2013-10-11 09:05:00,
2013-10-11 05:15:00,52.2,45.5,-100.00,ENE,68,0.0,0.0,78,-99.99,,,-99.99,WSDL version 420,2013-10-11 09:15:00,
2013-10-11 05:22:00,52.3,45.7,29.32,ENE,68,0.0,0.0,78,0.00,,,0.00,WSDL version 420,2013-10-11 09:22:00,
2013-10-11 05:29:00,52.3,45.7,29.32,ENE,68,0.0,0.0,78,0.00,,,0.00,WSDL version 420,2013-10-11 09:29:00,
2013-10-11 05:35:00,52.3,45.5,29.32,ENE,68,0.0,0.0,78,0.00,,,0.00,WSDL version 420,2013-10-11 09:35:00,
2013-10-11 05:41:00,52.3,45.7,29.32,ENE,68,0.0,0.0,78,0.00,,,0.00,WSDL version 420,2013-10-11 09:41:00,
2013-10-11 05:48:00,52.3,45.9,29.32,ENE,68,0.0,0.0,79,0.00,,,0.00,WSDL version 420,2013-10-11 09:48:00,
2013-10-11 05:54:00,52.2,45.9,29.32,ENE,68,0.0,0.0,79,0.00,,,0.00,WSDL version 420,2013-10-11 09:54:00,
2013-10-11 06:04:00,52.0,45.7,-100.00,ENE,68,0.0,0.0,79,-99.99,,,-99.99,WSDL version 420,2013-10-11 10:04:00,
2013-10-11 06:10:00,52.0,45.8,-100.00,ENE,68,0.0,0.0,80,0.00,,,0.00,WSDL version 420,2013-10-11 10:10:00,
2013-10-11 06:16:00,51.9,45.9,-100.00,ENE,68,0.0,0.0,80,0.00,,,0.00,WSDL version 420,2013-10-11 10:16:00,
2013-10-11 06:22:00,51.8,46.1,29.29,ENE,68,0.0,0.0,81,0.00,,,0.00,WSDL version 420,2013-10-11 10:22:00,
2013-10-11 06:30:00,51.8,46.6,29.29,ENE,68,0.0,0.0,82,0.00,,,0.00,WSDL version 420,2013-10-11 10:30:00,
2013-10-11 06:36:00,51.8,46.8,29.29,ENE,68,0.0,0.0,83,0.00,,,0.00,WSDL version 420,2013-10-11 10:36:00,
2013-10-11 06:45:00,51.7,46.8,29.32,ENE,68,0.0,0.0,83,0.00,,,0.00,WSDL version 420,2013-10-11 10:45:00,
2013-10-11 06:51:00,51.7,47.0,29.32,ENE,68,0.0,0.0,84,0.00,,,0.00,WSDL version 420,2013-10-11 10:51:00,
2013-10-11 06:57:00,51.6,47.1,29.32,ENE,68,0.0,0.0,84,0.00,,,0.00,WSDL version 420,2013-10-11 10:57:00,
2013-10-11 07:02:00,51.6,47.1,29.32,ENE,68,0.0,0.0,84,0.00,,,0.00,WSDL version 420,2013-10-11 11:02:00,
2013-10-11 07:10:00,51.6,47.3,-100.00,ENE,68,0.0,0.0,86,0.00,,,0.00,WSDL version 420,2013-10-11 11:10:00,
2013-10-11 07:16:00,51.6,47.4,-100.00,ENE,68,0.0,0.0,86,0.00,,,0.00,WSDL version 420,2013-10-11 11:16:00,
2013-10-11 07:24:00,51.6,47.4,29.32,NE,36,0.0,0.0,86,0.00,,,0.00,WSDL version 420,2013-10-11 11:24:00,
2013-10-11 07:32:00,51.6,47.4,-100.00,NNE,23,0.0,0.0,86,0.00,,,0.00,WSDL version 420,2013-10-11 11:32:00,
2013-10-11 07:37:00,51.6,47.4,29.32,NE,45,0.0,0.0,86,0.00,,,0.00,WSDL version 420,2013-10-11 11:37:00,
2013-10-11 07:43:00,51.6,47.4,29.32,ENE,68,0.0,0.0,86,0.00,,,0.00,WSDL version 420,2013-10-11 11:43:00,
2013-10-11 07:52:00,51.4,47.3,29.32,East,90,0.0,0.0,86,0.00,,,0.00,WSDL version 420,2013-10-11 11:52:00,
2013-10-11 07:58:00,51.6,47.8,-100.00,East,90,0.0,0.0,87,0.00,,,0.00,WSDL version 420,2013-10-11 11:58:00,
2013-10-11 08:04:00,51.6,47.8,29.32,East,90,0.0,0.0,87,0.00,,,0.00,WSDL version 420,2013-10-11 12:04:00,
2013-10-11 08:09:00,51.7,47.9,29.32,East,90,0.0,0.0,87,0.00,,,0.00,WSDL version 420,2013-10-11 12:09:00,
2013-10-11 08:17:00,51.8,48.0,29.32,East,90,0.0,0.0,87,0.00,,,0.00,WSDL version 420,2013-10-11 12:17:00,
2013-10-11 08:25:00,52.2,48.7,-100.00,East,90,0.0,0.0,88,0.00,,,0.00,WSDL version 420,2013-10-11 12:25:00,
2013-10-11 08:32:00,52.2,48.7,29.35,East,90,0.0,0.0,88,0.00,,,0.00,WSDL version 420,2013-10-11 12:32:00,
2013-10-11 08:38:00,52.3,48.8,-100.00,East,90,0.0,0.0,88,0.00,,,0.00,WSDL version 420,2013-10-11 12:38:00,
2013-10-11 08:43:00,52.5,49.0,29.32,East,90,0.0,0.0,88,0.00,,,0.00,WSDL version 420,2013-10-11 12:43:00,
2013-10-11 08:50:00,52.7,49.5,-100.00,East,90,0.0,0.0,89,0.00,,,0.00,WSDL version 420,2013-10-11 12:50:00,
2013-10-11 08:57:00,52.9,49.7,29.32,East,90,0.0,0.0,89,0.00,,,0.00,WSDL version 420,2013-10-11 12:57:00,
2013-10-11 09:02:00,53.1,50.0,29.32,East,90,0.0,0.0,89,0.00,,,0.00,WSDL version 420,2013-10-11 13:02:00,
2013-10-11 09:08:00,53.2,50.1,29.32,East,90,0.0,0.0,89,0.00,,,0.00,WSDL version 420,2013-10-11 13:08:00,
2013-10-11 09:14:00,53.2,50.1,29.32,East,90,0.0,0.0,89,0.00,,,0.00,WSDL version 420,2013-10-11 13:14:00,
2013-10-11 09:21:00,53.6,50.4,29.32,East,90,0.0,0.0,89,0.00,,,0.00,WSDL version 420,2013-10-11 13:21:00,
2013-10-11 09:29:00,54.0,50.8,29.32,East,90,0.0,0.0,89,0.00,,,0.00,WSDL version 420,2013-10-11 13:29:00,
2013-10-11 09:35:00,54.1,50.5,-100.00,East,90,0.0,0.0,88,0.00,,,0.00,WSDL version 420,2013-10-11 13:35:00,
2013-10-11 09:42:00,54.3,50.7,-100.00,ESE,104,0.0,0.0,88,0.00,,,0.00,WSDL version 420,2013-10-11 13:42:00,
2013-10-11 09:48:00,54.4,50.5,29.32,ESE,113,0.0,0.0,87,0.00,,,0.00,WSDL version 420,2013-10-11 13:48:00,
2013-10-11 09:54:00,54.7,51.1,29.32,ESE,113,0.0,0.0,88,0.00,,,0.00,WSDL version 420,2013-10-11 13:54:00,
2013-10-11 10:02:00,55.2,51.7,-100.00,East,90,0.0,0.0,88,0.00,,,0.00,WSDL version 420,2013-10-11 14:02:00,
2013-10-11 10:09:00,55.5,51.6,29.32,ESE,113,0.0,0.0,87,0.00,,,0.00,WSDL version 420,2013-10-11 14:09:00,
2013-10-11 10:15:00,55.9,52.0,-100.00,ESE,113,0.0,0.0,87,0.00,,,0.00,WSDL version 420,2013-10-11 14:15:00,
2013-10-11 10:20:00,56.2,52.1,-100.00,ENE,68,0.0,0.0,87,0.00,,,0.00,WSDL version 420,2013-10-11 14:20:00,
2013-10-11 10:29:00,56.7,52.4,29.32,SE,145,0.0,0.0,86,0.00,,,0.00,WSDL version 420,2013-10-11 14:29:00,
2013-10-11 10:35:00,56.8,51.9,29.32,SSE,158,0.0,0.0,83,0.00,,,0.00,WSDL version 420,2013-10-11 14:35:00,
2013-10-11 10:42:00,57.1,51.9,-100.00,SSE,158,0.0,0.0,82,0.00,,,0.00,WSDL version 420,2013-10-11 14:42:00,
2013-10-11 10:49:00,57.6,51.8,-100.00,SSE,158,0.0,0.0,81,0.00,,,0.00,WSDL version 420,2013-10-11 14:49:00,
2013-10-11 10:55:00,57.8,51.9,29.32,South,171,0.0,0.0,80,0.00,,,0.00,WSDL version 420,2013-10-11 14:55:00,
2013-10-11 11:08:00,58.8,51.6,29.32,SSW,203,0.0,0.0,77,0.00,,,0.00,WSDL version 420,2013-10-11 15:08:00,
2013-10-11 11:14:00,59.3,51.7,29.32,SSW,203,0.0,0.0,76,-99.99,,,-99.99,WSDL version 420,2013-10-11 15:14:00,
2013-10-11 11:20:00,60.1,52.3,-100.00,SSW,203,0.0,0.0,75,0.00,,,0.00,WSDL version 420,2013-10-11 15:20:00,
2013-10-11 11:26:00,60.7,52.1,-100.00,South,176,0.0,0.0,73,0.00,,,0.00,WSDL version 420,2013-10-11 15:26:00,
2013-10-11 11:31:00,61.1,51.5,29.35,SSW,194,0.0,0.0,70,0.00,,,0.00,WSDL version 420,2013-10-11 15:31:00,
2013-10-11 11:37:00,61.6,51.9,29.35,SSW,203,0.0,0.0,70,0.00,,,0.00,WSDL version 420,2013-10-11 15:37:00,
2013-10-11 11:45:00,62.0,50.3,-100.00,SSW,203,0.0,0.0,65,0.00,,,0.00,WSDL version 420,2013-10-11 15:45:00,
2013-10-11 11:50:00,62.0,49.4,-100.00,SSW,203,0.0,0.0,61,0.00,,,0.00,WSDL version 420,2013-10-11 15:50:00,
2013-10-11 11:58:00,62.2,49.1,-100.00,South,190,0.0,0.0,62,0.00,,,0.00,WSDL version 420,2013-10-11 15:58:00,
2013-10-11 12:05:00,62.4,48.8,29.35,SW,230,0.0,0.0,61,0.00,,,0.00,WSDL version 420,2013-10-11 16:05:00,
2013-10-11 12:11:00,62.6,45.9,29.32,North,349,0.0,0.0,53,0.00,,,0.00,WSDL version 420,2013-10-11 16:11:00,
2013-10-11 12:17:00,62.8,44.7,-100.00,East,90,0.0,0.0,52,0.00,,,0.00,WSDL version 420,2013-10-11 16:17:00,
2013-10-11 12:22:00,63.4,45.5,29.32,ENE,63,0.0,0.0,52,0.00,,,0.00,WSDL version 420,2013-10-11 16:22:00,
2013-10-11 12:31:00,64.0,45.0,29.32,NNW,338,0.0,0.0,50,0.00,,,0.00,WSDL version 420,2013-10-11 16:31:00,
2013-10-11 12:40:00,64.9,45.3,29.32,ENE,68,0.0,0.0,49,0.00,,,0.00,WSDL version 420,2013-10-11 16:40:00,
2013-10-11 12:47:00,65.3,44.0,-100.00,North,351,0.0,0.0,46,0.00,,,0.00,WSDL version 420,2013-10-11 16:47:00,
2013-10-11 12:54:00,65.7,43.8,-100.00,NNW,338,0.0,0.0,45,0.00,,,0.00,WSDL version 420,2013-10-11 16:54:00,
2013-10-11 13:00:00,65.8,43.5,29.32,ENE,68,0.0,0.0,44,0.00,,,0.00,WSDL version 420,2013-10-11 17:00:00,
2013-10-11 13:06:00,66.0,43.1,29.32,NNW,334,0.0,0.0,43,-99.99,,,-99.99,WSDL version 420,2013-10-11 17:06:00,
2013-10-11 13:12:00,66.0,42.3,-100.00,NNE,23,0.0,0.0,42,0.00,,,0.00,WSDL version 420,2013-10-11 17:12:00,
2013-10-11 13:17:00,66.4,42.4,-100.00,NE,34,0.0,0.0,42,0.00,,,0.00,WSDL version 420,2013-10-11 17:17:00,
2013-10-11 13:22:00,66.6,42.2,-100.00,North,9,0.0,0.0,41,0.00,,,0.00,WSDL version 420,2013-10-11 17:22:00,
2013-10-11 13:28:00,66.7,43.2,-100.00,East,81,0.0,0.0,42,0.00,,,0.00,WSDL version 420,2013-10-11 17:28:00,
2013-10-11 13:35:00,66.7,41.7,29.32,North,3,0.0,0.0,39,0.00,,,0.00,WSDL version 420,2013-10-11 17:35:00,
2013-10-11 13:41:00,66.7,41.6,29.32,East,81,0.0,0.0,40,0.00,,,0.00,WSDL version 420,2013-10-11 17:41:00,
2013-10-11 13:48:00,66.7,40.7,29.32,NNE,23,0.0,0.0,39,-99.99,,,-99.99,WSDL version 420,2013-10-11 17:48:00,
2013-10-11 13:54:00,66.7,40.0,29.32,NNW,330,0.0,0.0,37,0.00,,,0.00,WSDL version 420,2013-10-11 17:54:00,
2013-10-11 14:07:00,68.6,42.0,29.32,East,101,0.0,0.0,38,-99.99,,,-99.99,WSDL version 420,2013-10-11 18:07:00,
2013-10-11 14:13:00,68.9,41.1,29.35,NE,51,0.0,0.0,36,0.00,,,0.00,WSDL version 420,2013-10-11 18:13:00,
2013-10-11 14:19:00,68.7,40.7,29.35,ENE,64,0.0,0.0,36,-99.99,,,-99.99,WSDL version 420,2013-10-11 18:19:00,
2013-10-11 14:28:00,68.5,40.1,-100.00,North,-999,-999.0,-999.0,35,-99.99,,,-99.99,WSDL version 420,2013-10-11 18:28:00,
2013-10-11 14:40:00,67.3,39.3,-100.00,ENE,70,0.0,0.0,36,0.00,,,0.00,WSDL version 420,2013-10-11 18:40:00,
2013-10-11 14:46:00,67.3,40.0,29.32,ENE,68,0.0,0.0,37,0.00,,,0.00,WSDL version 420,2013-10-11 18:46:00,
2013-10-11 14:52:00,67.3,40.0,29.32,NE,41,0.0,0.0,36,0.00,,,0.00,WSDL version 420,2013-10-11 18:52:00,
2013-10-11 14:57:00,67.3,39.4,29.32,NNW,338,0.0,0.0,36,-99.99,,,-99.99,WSDL version 420,2013-10-11 18:57:00,
2013-10-11 15:03:00,67.3,39.2,29.32,NNE,23,0.0,0.0,35,0.00,,,0.00,WSDL version 420,2013-10-11 19:03:00,
2013-10-11 15:09:00,67.3,38.7,29.32,North,6,0.0,0.0,35,-99.99,,,-99.99,WSDL version 420,2013-10-11 19:09:00,
2013-10-11 15:22:00,67.0,38.1,29.32,NNE,14,0.0,0.0,34,0.00,,,0.00,WSDL version 420,2013-10-11 19:22:00,
2013-10-11 15:28:00,67.2,37.9,29.32,NE,42,0.0,0.0,34,0.00,,,0.00,WSDL version 420,2013-10-11 19:28:00,
2013-10-11 15:34:00,67.3,38.0,29.32,ENE,75,0.0,0.0,34,0.00,,,0.00,WSDL version 420,2013-10-11 19:34:00,
2013-10-11 15:40:00,67.6,38.8,29.32,ENE,68,0.0,0.0,34,-99.99,,,-99.99,WSDL version 420,2013-10-11 19:40:00,
2013-10-11 15:48:00,67.3,38.0,29.32,NNW,338,0.0,0.0,34,-99.99,,,-99.99,WSDL version 420,2013-10-11 19:48:00,
2013-10-11 16:11:00,67.3,38.0,29.32,NNW,347,0.0,0.0,34,0.00,,,0.00,WSDL version 420,2013-10-11 20:11:00,
2013-10-11 16:22:00,67.5,37.4,29.32,NNE,13,0.0,0.0,33,0.00,,,0.00,WSDL version 420,2013-10-11 20:22:00,
2013-10-11 16:30:00,67.3,37.2,29.32,NE,45,0.0,0.9,33,-99.99,,,-99.99,WSDL version 420,2013-10-11 20:30:00,
2013-10-11 16:45:00,67.3,37.2,29.32,NNE,26,0.0,0.0,33,0.00,,,0.00,WSDL version 420,2013-10-11 20:45:00,
2013-10-11 16:56:00,66.9,36.9,29.32,NE,34,0.0,0.0,33,0.00,,,0.00,WSDL version 420,2013-10-11 20:56:00,
2013-10-11 17:02:00,66.9,36.9,-100.00,East,96,0.0,0.0,33,-99.99,,,-99.99,WSDL version 420,2013-10-11 21:02:00,
2013-10-11 17:29:00,66.4,37.9,29.29,North,0,0.0,0.0,35,0.00,,,0.00,WSDL version 420,2013-10-11 21:29:00,
2013-10-11 17:36:00,65.8,38.2,-100.00,ENE,68,0.0,0.0,36,0.00,,,0.00,WSDL version 420,2013-10-11 21:36:00,
2013-10-11 17:43:00,65.5,38.5,29.32,ENE,68,0.0,0.0,37,0.00,,,0.00,WSDL version 420,2013-10-11 21:43:00,
2013-10-11 18:00:00,65.1,38.9,29.32,ENE,71,0.0,0.0,38,0.00,,,0.00,WSDL version 420,2013-10-11 22:00:00,
2013-10-11 18:06:00,64.9,38.7,29.32,NE,45,0.0,0.0,38,0.00,,,0.00,WSDL version 420,2013-10-11 22:06:00,
2013-10-11 18:21:00,64.3,38.2,-100.00,NNE,23,0.0,0.0,38,-99.99,,,-99.99,WSDL version 420,2013-10-11 22:21:00,
2013-10-11 18:27:00,64.0,38.4,29.32,NNE,23,0.0,0.0,39,0.00,,,0.00,WSDL version 420,2013-10-11 22:27:00,
2013-10-11 18:33:00,63.5,38.5,29.32,NNE,23,0.0,0.0,40,0.00,,,0.00,WSDL version 420,2013-10-11 22:33:00,
2013-10-11 18:53:00,61.9,40.3,29.32,NE,45,0.0,0.0,45,-99.99,,,-99.99,WSDL version 420,2013-10-11 22:53:00,
2013-10-11 19:13:00,60.4,40.7,29.32,ENE,68,0.0,0.0,48,0.00,,,0.00,WSDL version 420,2013-10-11 23:13:00,
2013-10-11 19:21:00,60.2,41.1,29.32,ENE,68,0.0,0.0,50,0.00,,,0.00,WSDL version 420,2013-10-11 23:21:00,
2013-10-11 19:27:00,59.9,41.5,29.32,ENE,68,0.0,0.0,51,0.00,,,0.00,WSDL version 420,2013-10-11 23:27:00,
2013-10-11 19:38:00,59.5,41.3,29.29,ENE,68,0.0,0.0,51,-99.99,,,-99.99,WSDL version 420,2013-10-11 23:38:00,
2013-10-11 19:44:00,59.3,41.2,-100.00,ENE,68,0.0,0.0,51,-99.99,,,-99.99,WSDL version 420,2013-10-11 23:44:00,
2013-10-11 19:50:00,58.9,41.5,-100.00,ENE,68,0.0,0.0,53,0.00,,,0.00,WSDL version 420,2013-10-11 23:50:00,
2013-10-11 19:59:00,58.5,41.4,29.32,ENE,68,0.0,0.0,53,0.00,,,0.00,WSDL version 420,2013-10-11 23:59:00,
2013-10-11 20:05:00,58.2,41.6,29.32,ENE,68,0.0,0.0,55,0.00,,,0.00,WSDL version 420,2013-10-12 00:05:00,
2013-10-11 20:12:00,57.7,41.6,29.35,ENE,68,0.0,0.0,55,0.00,,,0.00,WSDL version 420,2013-10-12 00:12:00,
2013-10-11 20:19:00,57.2,41.5,-100.00,ENE,68,0.0,0.0,56,0.00,,,0.00,WSDL version 420,2013-10-12 00:19:00,
2013-10-11 20:27:00,56.7,41.6,-100.00,ENE,68,0.0,0.0,58,0.00,,,0.00,WSDL version 420,2013-10-12 00:27:00,
2013-10-11 20:34:00,56.0,41.5,-100.00,ENE,68,0.0,0.0,58,0.00,,,0.00,WSDL version 420,2013-10-12 00:34:00,
2013-10-11 20:40:00,55.8,41.4,-100.00,ENE,68,0.0,0.0,59,0.00,,,0.00,WSDL version 420,2013-10-12 00:40:00,
2013-10-11 20:46:00,55.1,41.8,29.29,ENE,68,0.0,0.0,61,0.00,,,0.00,WSDL version 420,2013-10-12 00:46:00,
2013-10-11 20:54:00,54.4,41.9,29.29,ENE,68,0.0,0.0,63,0.00,,,0.00,WSDL version 420,2013-10-12 00:54:00,
2013-10-11 21:01:00,53.8,41.9,29.29,ENE,68,0.0,0.0,64,0.00,,,0.00,WSDL version 420,2013-10-12 01:01:00,
2013-10-11 21:07:00,53.4,41.6,29.29,ENE,68,0.0,0.0,65,0.00,,,0.00,WSDL version 420,2013-10-12 01:07:00,
2013-10-11 21:13:00,53.0,41.7,29.32,ENE,68,0.0,0.0,66,0.00,,,0.00,WSDL version 420,2013-10-12 01:13:00,
2013-10-11 21:19:00,52.5,41.5,29.32,ENE,68,0.0,0.0,66,0.00,,,0.00,WSDL version 420,2013-10-12 01:19:00,
2013-10-11 21:27:00,51.9,41.6,-100.00,ENE,68,0.0,0.0,68,0.00,,,0.00,WSDL version 420,2013-10-12 01:27:00,
2013-10-11 21:33:00,51.7,41.8,29.32,ENE,68,0.0,0.0,69,0.00,,,0.00,WSDL version 420,2013-10-12 01:33:00,
2013-10-11 21:38:00,51.4,41.6,29.32,ENE,68,0.0,0.0,69,0.00,,,0.00,WSDL version 420,2013-10-12 01:38:00,
2013-10-11 21:44:00,51.1,41.7,-100.00,ENE,68,0.0,0.0,70,0.00,,,0.00,WSDL version 420,2013-10-12 01:44:00,
2013-10-11 21:53:00,50.7,42.4,29.32,ENE,68,0.0,0.0,73,0.00,,,0.00,WSDL version 420,2013-10-12 01:53:00,
2013-10-11 21:58:00,50.4,41.7,29.32,ENE,68,0.0,0.0,72,0.00,,,0.00,WSDL version 420,2013-10-12 01:58:00,
2013-10-11 22:04:00,50.2,41.2,29.32,ENE,68,0.0,0.0,71,0.00,,,0.00,WSDL version 420,2013-10-12 02:04:00,
2013-10-11 22:11:00,49.8,41.2,29.32,ENE,68,0.0,0.0,73,-99.99,,,-99.99,WSDL version 420,2013-10-12 02:11:00,
2013-10-11 22:16:00,49.5,41.1,29.32,ENE,68,0.0,0.0,72,0.00,,,0.00,WSDL version 420,2013-10-12 02:16:00,
2013-10-11 22:22:00,49.0,40.7,-100.00,ENE,68,0.0,0.0,73,0.00,,,0.00,WSDL version 420,2013-10-12 02:22:00,
2013-10-11 22:33:00,48.6,40.3,29.32,ENE,68,0.0,0.0,73,-99.99,,,-99.99,WSDL version 420,2013-10-12 02:33:00,
2013-10-11 22:39:00,48.6,40.5,29.32,ENE,68,0.0,0.0,74,0.00,,,0.00,WSDL version 420,2013-10-12 02:39:00,
2013-10-11 22:46:00,48.2,40.3,29.32,ENE,68,0.0,0.0,74,0.00,,,0.00,WSDL version 420,2013-10-12 02:46:00,
2013-10-11 22:52:00,48.1,40.2,29.32,ENE,68,0.0,0.0,74,0.00,,,0.00,WSDL version 420,2013-10-12 02:52:00,
2013-10-11 22:58:00,48.0,40.5,29.32,ENE,68,0.0,0.0,75,0.00,,,0.00,WSDL version 420,2013-10-12 02:58:00,
2013-10-11 23:05:00,47.7,40.1,-100.00,ENE,68,0.0,0.0,75,0.00,,,0.00,WSDL version 420,2013-10-12 03:05:00,
2013-10-11 23:11:00,47.5,40.0,29.32,ENE,68,0.0,0.0,75,0.00,,,0.00,WSDL version 420,2013-10-12 03:11:00,
2013-10-11 23:18:00,47.3,40.1,29.32,ENE,68,0.0,0.0,76,0.00,,,0.00,WSDL version 420,2013-10-12 03:18:00,
2013-10-11 23:26:00,47.1,39.8,29.29,ENE,68,0.0,0.0,76,0.00,,,0.00,WSDL version 420,2013-10-12 03:26:00,
2013-10-11 23:31:00,47.0,39.9,-100.00,ENE,68,0.0,0.0,76,0.00,,,0.00,WSDL version 420,2013-10-12 03:31:00,
2013-10-11 23:37:00,46.8,39.6,-100.00,ENE,68,0.0,0.0,76,-99.99,,,-99.99,WSDL version 420,2013-10-12 03:37:00,
2013-10-11 23:44:00,46.6,39.4,-100.00,ENE,68,0.0,0.0,76,0.00,,,0.00,WSDL version 420,2013-10-12 03:44:00,
2013-10-11 23:50:00,46.5,39.5,-100.00,ENE,68,0.0,0.0,77,0.00,,,0.00,WSDL version 420,2013-10-12 03:50:00,
2013-10-11 23:55:00,46.2,39.4,29.32,ENE,68,0.0,0.0,77,0.00,,,0.00,WSDL version 420,2013-10-12 03:55:00,